Regional Weather Roundup
Issued by NWS Sterling, VA

Home | Current Version | Previous Version | Text Only | Print | Product List | Glossary On
Versions: 1 2 3 4 5 6 7 8 9 10 11 12 13 14 15 16 17 18 19 20 21 22 23 24 25 26 27
000
ASUS41 KLWX 170210
RWRLWX

REGIONAL WEATHER ROUNDUP
NATIONAL WEATHER SERVICE BALTIMORE MD/WASHINGTON DC
900 PM EST MON JAN 16 2017

Note: "FAIR" indicates few or no clouds below 12,000 feet
with no significant weather and/or obstructions to visibility.
 TC=TEMPERATURE CELSIUS

 * =Non NWS site. Station does not report precipitation (e.g. rain,
    snow, etc.), thunder, or fog.

DCZ001-MDZ009-015-VAZ040>042-051-053>054-170300-
WASHINGTON METRO

CITY           SKY/WX    TMP DP  RH WIND       PRES   REMARKS
WASHINGTON NAT CLOUDY    43  33  68 S7        30.35F
DULLES         CLOUDY    42  31  64 S5        30.34S
ANDREWS AFB    CLOUDY    41  31  69 S6        30.33F
FT BELVOIR     CLOUDY    41  32  69 SE3       30.35S
QUANTICO       CLOUDY    42  36  79 SW3       30.37S
LEESBURG*      CLOUDY    45  39  81 MISG      30.33S
MANASSAS*      CLOUDY   N/A N/A N/A CALM      30.35S
GAITHERSBURG*  CLOUDY    41  28  60 S3        30.37S

$$

MDZ006>007-011-014-170300-
BALTIMORE METRO

CITY           SKY/WX    TMP DP  RH WIND       PRES   REMARKS
BWI AIRPORT    CLOUDY    40  29  64 CALM      30.35R
MD SCIENCE CTR   N/A     41  29  62 MISG      30.36S
MARTIN STATE   CLOUDY    37  34  87 CALM      30.37F
ANNAPOLIS      CLOUDY    42  30  62 S7        30.36S
FORT MEADE*    CLOUDY    39  30  70 CALM      30.37S

$$

MDZ012-015-019>023-170300-
MARYLAND EASTERN SHORE

CITY           SKY/WX    TMP DP  RH WIND       PRES   REMARKS
OCEAN CITY     CLOUDY    42  32  67 CALM      30.38S
SALISBURY      CLOUDY    41  32  70 CALM      30.37S
BAY BRIDGE AP* CLOUDY    41  30  65 S5        30.36S
CAMBRIDGE*     CLOUDY    41  32  70 CALM      30.36S
EASTON*        CLOUDY    43  28  56 S5        30.40R

$$

MDZ017>025-170300-
SOUTHERN MARYLAND

CITY           SKY/WX    TMP DP  RH WIND       PRES   REMARKS
PATUXENT RIVER CLOUDY    42  27  55 CALM      30.36S
ST INIGOES     NOT AVBL
LEONARDTOWN*   CLOUDY    41  30  65 CALM      30.38R

$$

MDZ003>005-170300-
NORTH CENTRAL MARYLAND

CITY           SKY/WX    TMP DP  RH WIND       PRES   REMARKS
FREDERICK*     CLOUDY    36  36 100 CALM      30.36
HAGERSTOWN APT CLOUDY    36  30  79 NW3       30.31F
WESTMINSTER*   CLOUDY    36  32  87 CALM      30.31F

$$

MDZ501>502-170300-
WESTERN MARYLAND

CITY           SKY/WX    TMP DP  RH WIND       PRES   REMARKS
OAKLAND*       FOG       46  46 100 S6        30.21F VSB 1/4
CUMBERLAND*    CLOUDY    37  34  87 CALM      30.32F

$$

VAZ025>031-170300-
SHENANDOAH VALLEY

CITY           SKY/WX    TMP DP  RH WIND       PRES   REMARKS
WINCHESTER*    CLOUDY    39  36  87 CALM      30.29F
FRONT ROYAL*   CLOUDY    39  37  93 CALM      30.28F
LURAY*         CLOUDY    45  43  93 SW10      30.28F
NEW MARKET*    CLOUDY    45  40  85 SW3       30.28F
STAUNTON*      CLOUDY    42  39  89 S6        30.30S
WAYNESBORO*    CLOUDY    41  39  94 CALM      30.29F

$$

WVZ021-048>050-054>055-170300-
EASTERN WEST VIRGINIA PANHANDLE

CITY           SKY/WX    TMP DP  RH WIND       PRES   REMARKS
MARTINSBURG    CLOUDY    37  31  78 N5        30.30F
PETERSBURG*    CLOUDY    40  37  86 CALM      30.29S

$$

VAZ036>039-050-170300-
CENTRAL FOOTHILLS

CITY           SKY/WX    TMP DP  RH WIND       PRES   REMARKS
CHARLOTTESVILL CLOUDY    44  41  89 S6        30.32F FOG
CULPEPER*      CLOUDY    44  41  90 S6        30.35S
ORANGE*          N/A     43  43 100 CALM      30.35S
GORDONSVILLE*  CLOUDY    41  41  99 CALM      30.33F
WARRENTON*     CLOUDY    44  38  79 S3        30.33S

$$

VAZ055>057-170300-
NORTH AND CENTRAL PIEDMONT

CITY           SKY/WX    TMP DP  RH WIND       PRES   REMARKS
FREDERICKSBRG* CLOUDY    43  37  81 SE6       30.35S
STAFFORD*      CLOUDY    41  35  79 SE3       30.39S

$$

NCZ024-NYZ072-PAZ021-071-VAZ022-071-170300-
OTHER REGIONAL OBSERVATIONS

CITY           SKY/WX    TMP DP  RH WIND       PRES   REMARKS
NEW YORK CITY  CLOUDY    41  24  51 SW12      30.35S
PHILADELPHIA   CLOUDY    39  26  59 S5        30.36F
PITTSBURGH     CLOUDY    36  34  92 S3        30.20F
ROANOKE        MOCLDY    42  41  96 W5        30.34S
RICHMOND       CLOUDY    42  39  89 S6        30.37R
RALEIGH        CLOUDY    49  39  68 S3        30.36S

$$

ANZ530>537-170300-
MARINE OBSERVATIONS

STATION/POSITION TIME  TEMP    WIND        PRES
                       AIR SEA DIR/SP/G
                 (UTC) (F)     (DEG/KT/KT) (MB)
THOMAS PT LIGHT  0200   40 38  180/  8/  9   N/A
BALT KEY BRIDGE  0142   38     100/  5/  5 1027.9S
COVE POINT       0148   40     200/  8/  9 1028.7S
LEWISETTA        0148   42 42  200/  6/  8 1027.8F
SOLOMONS ISLAND  0148          160/  3/  3   N/A
PINEY POINT      0148          190/  5/  6   N/A

$$





USA.gov is the U.S. government's official web portal to all federal, state and local government web resources and services.